STARLINK-2509, 48318

Orbit data source: Space-Track

STARLINK-2509, 48318 is a payload satellite owned by SpaceX/Seattle (US) in LEO that was launched on Thu, 29 Apr 2021 UTC via an FALCON 9 launch vehicle from the Air Force Eastern Test Range (AFETR). Payload-class satellites include a variety of spacecraft equipped with specific instruments for various scientific and technological missions. These include communications satellites like Starlink; space stations such as the ISS; scientific satellites like the Hubble; Earth observation satellites from companies like Planet Labs, Umbra, and HawkEye 360; GPS; miniature CubeSats for education and research; and military/defense satellites.

Loading next visibility...
Identifier
48318, 2021-036AU
Orbit
LEO
Country
Flag of USUS
Related business
Manufacturer
SpaceX/Seattle
Mission
Operational Commercial Communications
Bus & Motor
STARLINK, Unknown motor
Mass
260 kg wet, ~248 kg dry
Launch date (UTC)
2021-04-29 (4 years ago)
Launch vehicle
FALCON 9
Launch site
Air Force Eastern Test Range (AFETR)
Object type
Payload
Rocket body
Debris
Shape & HBR
Box + 1 Pan, 10.1 m
Radar Cross Section
13.562 m², Large (>1 m²)

Expand to show TLE details & history
Last TLE update: 6 hours ago

TLE from 6 hours ago
0 STARLINK-2509
1 48318U 21036AU  25291.27886875 -.00000628  00000-0 -23269-4 0  9990
2 48318  53.0555  20.9253 0001459  92.8459 267.2697 15.06399640246561
Epoch: 2025-10-18T06:41Z
TLE epoch observation values (Epoch: 2025-10-18T06:41:34.259Z)
Latitude
Longitude
-106.47962°
Altitude
548.14 km
Speed
7.589 km/s
True Right ascension
01h 23m 42s
True Declination
0° 00' 00"
Sunlit
Object was in full shadow at epoch
Visualization orbit readout
Latitude
Unknown
Longitude
Unknown
Altitude
Unknown
Speed
Unknown
Apparent Right ascension
Unknown
Apparent Declination
Unknown
Sunlit
N/A
Visualization observer readout
Local Sidereal Time
07:43:59
Azimuth
Unknown
Elevation
Unknown
Doppler factor
Unknown
Orbital elements
Apogee altitude
548.494 km
Perigee altitude
546.473 km
Semi-major axis
6,925.62 km
Eccentricity
0.00015
Inclination
53.0555°
RAAN
20.9253°
Arg. of periapsis
92.8459°
True anomaly
267.253°
Mean anomaly
267.2697°
Eccentric anomaly
267.26135°
Mean motion
3.76578 °/min
Orbital period
95.6 mins
BSTAR
-0.000023269
Loading maneuver chart data...
Computing Atmospheric mass density...
Loading historical data...
Loading historical data...
Loading historical data...
Loading historical data...
Loading historical data...
Loading historical data...
Loading historical data...

Documentation

Showing up to 5 results
|